Location: Bergnerzell
(49.1816°N, 10.2565°E)
Time: 09:08:44
(UTC+00:00)

Cosmos 1825 - Pass Details

Date: 13 August 2024
Orbit: 422 x 426 km, 82.5° (Epoch: 08 September)

Event Time Altitude Azimuth Distance (km) Brightness Sun altitude
Rises 02:53:39 0° 344° (NNW) 2,409 5.9 -11.3°
Reaches altitude 10° 02:55:46 10° 338° (NNW) 1,533 4.8 -11.0°
Maximum altitude 02:58:56 43° 265° (W) 608 2.2 -10.6°
Drops below altitude 10° 03:02:05 10° 193° (SSW) 1,511 4.1 -10.2°
Enters shadow 03:02:22 - 191° (SSW) 1,628 4.3 -10.2°
